Starlink 31744

operational
NORAD ID: 59494 Int'l Des: 2024-071 Owner: SPXS Country: US Constellation: starlink
LEOCIRCULAR

About Starlink 31744

Description loading...

Live Position

Loading 3D Globe...

Upcoming Passes

Altitude History

Altitude vs Time

uPlot chart will show altitude changes over time

Two-Line Element Set

1 59494U 24071L 25350.36534443 .00003414 00000-0 13354-3 0 9993
2 59494 43.0038 97.9784 0001499 275.7059 84.3621 15.27578844 95372
Epoch: Dec 16, 2025 • Age: 22 hours

Current Status

Altitude 491.0 km
Velocity 7.62 km/s
Sub-Earth Point -32.33°S, 133.43°W
Launch Date Apr 13, 2024
Age 1.6 years
Type internet

Technical Details

Classification Payload
Mass 730.00 kg
Dry Mass 700.00 kg
Total Mass 730.00 kg
Length 0.30 m
Diameter 4.10 m
Span 29.00 m
Shape Box + pan
Manufacturer SPXS
Bus Type Starlink V2M
Phase Status In Orbit
Owner/State SPXS/US

Large Constellations

Loading constellations...